Weather History for El Paso, TX

Change the Weather History Date:

Thursday, March 17, 2011

  Actual Average Record
Temperature  
Mean Temperature 71 °F 57 °F  
Max Temperature 85 °F 71 °F 87 °F (1887)
Min Temperature 57 °F 43 °F 26 °F (1991)
Degree Days  
Heating Degree Days 0 9  
Month to date heating degree days 75 174  
Since 1 July heating degree days 2046 2277  
Cooling Degree Days 6 0  
Month to date cooling degree days 13 0  
Year to date cooling degree days 14 0  
Growing Degree Days 20 (Base 50)    
Moisture  
Dew Point 18 °F    
Average Humidity 16    
Maximum Humidity 24    
Minimum Humidity 7    
Precipitation  
Precipitation 0.00 in 0.01 in 0.96 in (1941)
Month to date precipitation 0.00 0.16  
Year to date precipitation 0.11 1.02  
Snow  
Snow 0.00 in - - ()
Month to date snowfall 0.0  
Since 1 July snowfall 2.0  
Snow Depth 0.00 in    
Sea Level Pressure  
Sea Level Pressure 29.89 in    
Wind  
Wind Speed 10 mph (SW)    
Max Wind Speed 23 mph    
Max Gust Speed 28 mph    
Visibility 10 miles    
Events      
T = Trace of Precipitation, MM = Missing Value Source: NWS Daily Summary

Daily Weather History Graph

Daily Weather History Graph

Search for Another Location

Airport:

Trip Planner

Search our weather history database for the weather conditions in past years. The results will help you decide how hot, cold, wet, or windy it might be!

Date:

Astronomy

Mar. 17, 2011 Rise Set
Actual Time 7:13 AM MDT 7:14 PM MDT
Civil Twilight 6:49 AM MDT 7:39 PM MDT
Nautical Twilight 6:20 AM MDT 8:07 PM MDT
Astronomical Twilight 5:52 AM MDT 8:36 PM MDT
Moon 5:17 PM MDT 5:30 AM MDT
Length of Visible Light 12h 50m
Length of Day
12h 01m
Waxing Gibbous, 94% of the Moon is Illuminated
Mar 17
Waxing Gibbous
Mar 19
Full
Mar 26
Last Quarter
Apr 3
New
Apr 11
First Quarter

Hourly Weather History & Observations

Time (MDT) Temp. Dew Point Humidity Pressure Visibility Wind Dir Wind Speed Gust Speed Precip Events Conditions
12:51 AM 69.1 °F 19.9 °F 15% 29.86 in 10.0 mi SW 9.2 mph - N/A   Clear
1:51 AM 72.0 °F 21.0 °F 15% 29.85 in 10.0 mi West 15.0 mph - N/A   Clear
2:51 AM 64.9 °F 19.9 °F 18% 29.88 in 10.0 mi WSW 8.1 mph - N/A   Clear
3:51 AM 68.0 °F 19.0 °F 15% 29.86 in 10.0 mi West 8.1 mph - N/A   Clear
4:51 AM 68.0 °F 19.9 °F 16% 29.84 in 10.0 mi WNW 17.3 mph - N/A   Clear
5:51 AM 62.1 °F 19.0 °F 19% 29.90 in 10.0 mi ESE 5.8 mph - N/A   Clear
6:51 AM 57.9 °F 21.9 °F 25% 29.93 in 10.0 mi South 9.2 mph - N/A   Clear
7:51 AM 59.0 °F 21.9 °F 24% 29.96 in 10.0 mi SSE 8.1 mph - N/A   Clear
8:51 AM 64.9 °F 21.0 °F 19% 29.97 in 10.0 mi SSW 11.5 mph - N/A   Clear
9:51 AM 71.1 °F 21.9 °F 16% 29.97 in 10.0 mi SW 13.8 mph - N/A   Clear
10:51 AM 75.0 °F 21.9 °F 14% 29.96 in 10.0 mi SW 13.8 mph - N/A   Clear
11:51 AM 77.0 °F 21.9 °F 13% 29.96 in 10.0 mi WSW 11.5 mph - N/A   Clear
12:51 PM 81.0 °F 21.0 °F 11% 29.94 in 10.0 mi WSW 16.1 mph 23.0 mph N/A   Clear
1:51 PM 82.0 °F 19.9 °F 10% 29.90 in 10.0 mi SW 11.5 mph 23.0 mph N/A   Partly Cloudy
2:51 PM 82.9 °F 14.0 °F 8% 29.88 in 10.0 mi WSW 10.4 mph 26.5 mph N/A   Partly Cloudy
3:51 PM 82.9 °F 16.0 °F 8% 29.84 in 10.0 mi WSW 10.4 mph - N/A   Partly Cloudy
4:51 PM 84.0 °F 12.9 °F 7% 29.83 in 10.0 mi West 13.8 mph 21.9 mph N/A   Partly Cloudy
5:51 PM 84.0 °F 14.0 °F 7% 29.83 in 10.0 mi WSW 13.8 mph - N/A   Partly Cloudy
6:51 PM 81.0 °F 14.0 °F 8% 29.84 in 10.0 mi West 9.2 mph 16.1 mph N/A   Partly Cloudy
7:51 PM 78.1 °F 14.0 °F 9% 29.86 in 10.0 mi WSW 3.5 mph - N/A   Clear
8:51 PM 72.0 °F 14.0 °F 11% 29.87 in 10.0 mi Calm Calm - N/A   Clear
9:51 PM 69.1 °F 16.0 °F 13% 29.89 in 10.0 mi NW 3.5 mph - N/A   Clear
10:51 PM 68.0 °F 16.0 °F 14% 29.90 in 10.0 mi SSE 5.8 mph - N/A   Clear
11:51 PM 62.1 °F 16.0 °F 17% 29.92 in 10.0 mi Calm Calm - N/A   Clear